Regional Weather Roundup
Issued by NWS

Home | Current Version | Previous Version | Text Only | Print | Product List | Glossary Off
Versions: 1 2 3 4 5 6 7 8 9 10 11 12 13 14 15 16 17 18 19 20 21 22 23 24 25 26 27 28 29 30 31 32 33 34 35 36 37 38 39 40 41 42 43 44 45 46 47 48 49 50

000
ASUS43 KMKX 250221
RWRWI

WISCONSIN REGIONAL WEATHER ROUNDUP
NATIONAL WEATHER SERVICE MILWAUKEE/SULLIVAN WI
900 PM CDT FRI OCT 24 2014

NOTE: "FAIR" INDICATES FEW OR NO CLOUDS BELOW 12,000 FEET WITH NO
SIGNIFICANT WEATHER AND/OR OBSTRUCTIONS TO VISIBILITY.

WIZ001-002-006>008-014>016-023>028-250300-
NORTHWEST WISCONSIN

CITY           SKY/WX    TMP DP  RH WIND       PRES   REMARKS
SUPERIOR ARPT  PTCLDY    57  51  80 SW7       29.76S
ASHLAND        CLEAR     56  52  86 SW10      29.77F
HAYWARD        PTCLDY    53  51  93 S8        29.82F FOG
SIREN          MOCLDY    55  53  94 S5        29.83S
CUMBERLAND     CLOUDY    54  54 100 SW9       29.84F FOG
RICE LAKE      CLOUDY    56  54  91 S5        29.86S FOG
CHETEK         CLOUDY    56  55  95 CALM      29.86S FOG
LADYSMITH      CLOUDY    56  55  94 S6        29.87S FOG
EAU CLAIRE     CLOUDY    54  53  97 S5        29.86F FOG
MENOMONIE      FOG       53  53  99 CALM      29.87R VSB 1/4
NEW RICHMOND     N/A     51  51 100 S5        29.86S FOG
OSCEOLA        MOCLDY    54  54 100 S6        29.86F FOG
$$

WIZ003>005-009-010-017-018-250300-
NORTH CENTRAL WISCONSIN

CITY           SKY/WX    TMP DP  RH WIND       PRES   REMARKS
MANITOWISH WTR CLOUDY    55  51  89 SW8       29.81S
ARBOR VITAE    CLOUDY    57  52  83 SW9       29.81F
WOODRUFF       CLOUDY    57  52  83 SW9       29.81F
RHINELANDER    CLOUDY    54  48  80 SW7       29.84F
EAGLE RIVER    CLOUDY    55  46  73 SW7       29.81F
LAND O LAKES   CLOUDY    56  50  80 SW8G16    29.80F
PHILLIPS       CLOUDY    55  51  87 SW7       29.83S
TOMAHAWK       CLOUDY    53  48  83 CALM      29.84F
MEDFORD        CLOUDY    55  54  97 SW9       29.86S FOG
MERRILL        CLOUDY    55  51  83 SW7       29.85F
$$

WIZ029-030-035-036-043>047-250300-
CENTRAL WISCONSIN

CITY           SKY/WX    TMP DP  RH WIND       PRES   REMARKS
WAUSAU         CLOUDY    55  50  83 SW5       29.85F
MOSINEE        CLOUDY    55  52  88 SW7       29.88F
MARSHFIELD     CLOUDY    57  55  93 SW10      29.87S FOG
STEVENS POINT  CLOUDY    55  51  87 SW9       29.89R
WAUPACA        CLOUDY    55  53  92 S5        29.88F
WAUTOMA        CLOUDY    57  53  86 SW5       29.89F
WISC RAPIDS    CLOUDY    56  54  93 SW6       29.90R
CAMP DOUGLAS   CLOUDY    59  59 100 SW7       29.90R
$$

WIZ011>013-019>022-031-037>040-048>050-250300-
NORTHEAST WISCONSIN

CITY           SKY/WX    TMP DP  RH WIND       PRES   REMARKS
ANTIGO         CLOUDY    52  49  91 S5        29.86F
SHAWANO        CLOUDY    53  50  87 CALM      29.87F
OCONTO         CLOUDY    50  50 100 S3        29.87F
STURGEON BAY   CLOUDY    50  46  87 S8        29.89S VSB 1/2
GREEN BAY      CLOUDY    53  50  89 S5        29.88F
MANITOWOC      CLOUDY    51  50  96 S7        29.90F FOG
APPLETON       CLOUDY    54  50  87 S7        29.89F
CLINTONVILLE   CLOUDY    52  50  93 CALM      29.87F
OSHKOSH        CLOUDY    55  51  86 S10       29.88F
$$

WIZ032>034-041-042-053>061-250300-
SOUTHWEST WISCONSIN

CITY           SKY/WX    TMP DP  RH WIND       PRES   REMARKS
LA CROSSE      CLOUDY    58  55  90 S8        29.89F
SPARTA         CLOUDY    58  55  90 W3        29.91R
VIROQUA        CLOUDY    56  56 100 W6        29.92R
BOSCOBEL       CLOUDY    60  57  89 SW5       29.92R
PRAIRIE DU CHI CLOUDY    60  56  89 SW3       29.92R
PLATTEVILLE    CLOUDY    56  54  93 W6        29.93S
$$

WIZ056-057-062-063-064-067-068-250300-
SOUTH CENTRAL WISCONSIN

CITY           SKY/WX    TMP DP  RH WIND       PRES   REMARKS
REEDSBURG      CLOUDY    57  55  90 SW5       29.90S
BARABOO/DELLS  CLOUDY    58  51  80 SW6       29.90S
LONE ROCK      CLOUDY    62  55  77 W3        29.91S
MINERAL POINT  CLOUDY    59  54  82 SW3       29.92S
MADISON        CLOUDY    57  50  77 S3        29.91F
MIDDLETON      CLOUDY    58  50  76 SW3       29.91S
WATERTOWN      CLOUDY    55  52  91 SE3       29.91F
MONROE         CLOUDY    54  50  87 S9        29.91F
JANESVILLE     CLOUDY    61  50  67 S6        29.92F
$$

WIZ051-052-058>065-066-070>072-250300-
SOUTHEAST WISCONSIN

CITY           SKY/WX    TMP DP  RH WIND       PRES   REMARKS
MILWAUKEE      CLOUDY    54  49  83 SW6       29.94S HAZE
WAUKESHA       CLOUDY    54  50  87 S3        29.94F
MILWAUKEE/TIMM CLOUDY    55  48  76 S5        29.94S
RACINE         CLOUDY    54  51  90 CALM      29.95S FOG
BURLINGTON     CLOUDY    51  50  95 CALM      29.93S
KENOSHA        CLOUDY    52  50  93 W3        29.93F FOG
FOND DU LAC    CLOUDY    56  50  80 S6        29.90F
SHEBOYGAN      LGT RAIN  52  49  89 S6        29.91F
WEST BEND      CLOUDY    55  46  71 S3        29.91F
JUNEAU         CLOUDY    54  50  86 S5        29.92S
$$

LSZ147-162-250300-
LAKE SUPERIOR

STATION/POSITION TIME  TEMP    WIND        PRES    WAVE
                       AIR SEA DIR/SP/G            HT/PER
                 (UTC) (F)     (DEG/KT/KT) (MB)    (FT/S)
W MID LAKE BUOY  0150   53 47  220/ 19/ 21 1005.1F   2/ 3
DEVILS ISLAND    0200   57     220/ 16/ 19 1006.0F
PORT WING        0100   60     190/ 11/ 17 1007.5
SAXON HARBOR     0100   60     190/  9/ 16 1007.8S
$$

LMZ867-665-643>646-250300-
LAKE MICHIGAN

STATION/POSITION TIME  TEMP    WIND        PRES    WAVE
                       AIR SEA DIR/SP/G            HT/PER
                 (UTC) (F)     (DEG/KT/KT) (MB)    (FT/S)
CHAMBERS ISLAND  0100   50     160/  7/ 13 1011.5F
N MID LAKE BUOY  0150   49 51  210/ 21/ 25 1011.0F   4/ 5
NORTHPORT PIER   0100   49     160/  6/ 12 1011.5F
SISTER BAY       0143          200/  8/  9   N/A
ALGOMA LAKESHORE 0111          220/ 21/ 23   N/A
KEWAUNEE LAKESHO 0200   51     190/ 10/ 13 1011.4F
SHEBOYGAN LAKESH 0200   51 51  180/  8/  9 1013.3F
PORT WASHINGTON  0100   52     190/  3/  6 1014.2S
ATWATER BUOY     0200   53     180/  6/  8 1014.6S
MILWAUKEE LAKESH 0200   55     220/  7/  8   N/A
S MID LAKE BUOY  0150   55 54  150/  6/  6 1014.1F   0
KENOSHA   LAKESH 0200   54     220/  3/  5 1013.5S
$$

TC  - TEMPERATURE IN CELSIUS
VSB - VISIBILITY IN STATUTE MILES
WCI - WIND CHILL INDEX
HX  - HEAT INDEX




USA.gov is the U.S. government's official web portal to all federal, state and local government web resources and services.